Vertical_Velocity
-1 -0 -1 0 -0 0 -1 -2 -1 -0 -1 1 -0 -1 -1 2 1 -0 1 -2 -0 -0 1 0 1 -0 -1 1 1 -2 -1 0 -1 0 -1 0 -2 -1 1 0 0 -0 1
1 -1 -2 -1 -1 -0 1 1 0 1 -1 -1 2 2 -2 -2 2 2 -0 1 -1 -0 -1 -0 -1 1 1 -1 -2 0 -1 1 -0 0 -1 -2 -0 -0 -1 -0 0 -0 0
-4 -1 -0 -2 -2 -1 -1 -1 2 1 3 1 -2 -1 2 -1 0 2 1 1 1 0 0 -2 -1 -1 -1 2 2 1 0 0 -0 -2 -0 -1 -2 -1 1 -0 -0 -0 1
-0 -1 -4 -1 -1 1 -1 -2 1 1 1 1 -0 -1 -1 2 -1 1 1 1 1 2 1 0 1 0 -1 -1 1 0 2 4 -1 1 -1 -1 -1 -1 0 0 1 -1 0
1 0 -2 1 -0 0 -2 1 0 -1 1 1 2 0 1 -1 1 1 0 4 1 1 2 1 1 1 3 1 -1 -0 1 1 1 0 1 -1 -2 -1 -1 -0 -0 0 0
-2 -2 -1 1 -1 2 0 7 2 -1 1 -3 1 0 0 -2 -2 4 4 -0 -1 3 4 1 2 1 1 3 2 0 0 1 1 -0 -1 -1 -1 -1 -1 1 -0 -1 -0
-1 -1 -0 -3 -5 -5 -1 3 -1 -5 0 -2 4 -1 -1 -2 2 -3 1 3 2 1 3 5 1 3 4 3 3 3 3 2 3 0 1 2 0 1 -0 -0 1 -1 -0
-0 -1 2 -1 -0 -4 -4 0 1 -4 -3 -2 -4 -4 -2 2 -1 1 -1 0 3 3 16 10 4 2 -1 4 2 0 2 3 3 1 4 3 1 1 3 2 1 0 -1
-1 -1 -2 -1 -2 -2 -1 -3 -1 4 -0 -2 -7 -3 1 -3 -0 0 -4 2 1 -0 11 14 9 3 3 -2 -0 1 -0 1 2 3 2 4 5 3 2 2 3 1 -0
-1 0 1 0 -1 -2 -1 -1 -0 -2 -2 -1 -1 -3 -6 -1 -1 2 0 -2 3 5 4 6 16 14 -4 1 -5 -3 -2 -0 2 0 1 1 -0 2 3 3 2 1 0
-1 -1 -0 -1 -0 -1 -2 -3 -3 -2 -2 -3 -5 -4 -2 -5 -4 -4 2 1 2 4 15 8 3 6 17 5 2 6 1 -2 -2 -1 3 3 2 0 1 3 3 2 -0
0 1 1 1 0 -1 0 -1 -1 -1 -4 -3 -3 -2 -4 -7 -7 -6 -6 -6 -1 2 2 2 -3 1 7 3 11 14 -1 3 5 4 -3 -2 2 3 2 4 6 4 0
-1 -1 -0 -1 -1 -1 -0 -1 -1 -2 -3 -2 -3 -2 -2 -2 -4 -4 -7 -5 0 4 6 -8 1 -10 -10 10 -2 8 10 17 4 4 4 8 -4 -4 1 1 2 4 2
-0 0 0 -0 -1 -2 -2 -2 -2 -3 -3 -2 -3 -3 -3 -2 -3 -1 -2 -1 1 8 2 0 -6 7 9 -3 9 -1 4 0 9 -1 5 8 10 4 -0 1 2 1 3
-1 -0 -0 -0 -0 0 -1 -1 -2 -2 -2 -3 -2 -3 -2 -2 -2 -2 -1 2 2 5 1 -1 6 2 -6 -7 -15 -4 0 10 -6 7 -10 1 5 10 7 3 4 4 2
-1 -0 -1 -2 -2 -0 -0 -1 -1 -2 -2 -2 -2 -3 -2 -2 -2 -4 -3 -1 -1 3 6 5 -1 3 0 4 -0 -1 -8 -6 -9 8 1 2 -3 1 2 3 5 5 4
-0 -1 -1 -1 -0 -1 -1 -2 -2 -3 -2 -1 -2 -1 -0 -2 -3 -4 -5 -4 1 0 1 -1 4 1 -2 6 1 -8 -0 -1 4 -13 1 6 6 -5 1 1 2 4 3
-1 -1 -2 -2 -1 -1 -1 -2 -3 -2 -1 -1 -0 1 -1 -1 2 1 -2 -5 -5 -3 3 2 -2 -0 1 4 1 -1 -4 3 3 2 -3 -2 3 1 -3 -5 4 1 0
0 -1 -1 0 -0 -1 -2 -1 -2 -3 -4 -4 -3 -3 -3 -3 -1 -1 1 0 -0 1 -3 -5 -3 0 -1 0 0 5 9 5 -3 1 4 -7 4 1 -6 9 -3 3 3
-0 -1 -0 -0 -1 -1 -1 -2 -3 -3 -3 -1 -2 -3 -3 -2 -2 -3 -4 -3 -3 -2 1 -1 -5 -4 -5 -6 1 5 -1 -4 8 2 -8 8 -0 3 1 9 8 6 1
-1 -0 1 -1 -1 -0 -0 -0 -1 -1 -3 -4 -3 -3 -3 -4 -5 -5 -6 -6 -5 -3 -1 2 0 2 -4 -5 -2 -4 0 -3 -4 -6 0 -3 -1 -5 -2 1 -4 7 1
0 -1 -0 -1 1 -1 1 2 -2 -2 -3 -1 -2 -2 -2 -3 -2 -4 -4 -3 -4 -6 -5 -1 0 -2 -3 -6 -4 -6 1 -1 -3 -15 -15 15 -10 7 1 -3 10 8 -8
-3 3 -0 -1 -1 -1 -1 -2 -2 -3 -2 -4 -4 -2 -3 -5 -6 -4 -4 -4 -7 -5 -6 -6 -6 -7 -0 -7 -9 -5 -8 -5 3 8 -17 12 -29 8 -12 7 5 7 3
0 -2 1 -1 -2 -0 -3 -1 -1 -0 1 -1 -2 -4 -2 -5 -6 -5 -4 -6 -5 -5 -12 -9 -7 -6 -12 -10 -6 -6 -5 -5 1 4 -9 3 -8 6 -4 0 3 5 6
2 -0 -2 2 2 -0 -0 1 -1 -3 1 1 -3 -3 -4 -1 -3 -7 -7 -4 -6 -5 -12 -12 -10 -10 -9 -9 -8 -5 -10 -10 4 7 -11 -10 6 -8 -5 -5 0 -5 6
-2 -4 1 1 2 1 -1 -2 -4 -7 -10 -6 -4 -2 -2 -4 -0 -1 -4 -7 -7 -9 -7 -6 -4 -2 -6 -10 -9 -7 -3 -5 -5 5 -6 -13 5 -19 -3 1 3 1 2
Height
5868 5867 5867 5866 5865 5864 5864 5864 5863 5862 5864 5863 5863 5864 5864 5865 5867 5869 5871 5873 5874 5875 5875 5877 5877 5878 5878 5877 5878 5880 5880 5881 5881 5881 5881 5878 5877 5875 5873 5872 5870 5867 5864
5863 5863 5863 5862 5862 5861 5860 5859 5858 5859 5858 5859 5858 5857 5858 5859 5860 5862 5864 5865 5867 5869 5869 5870 5872 5873 5873 5873 5873 5873 5874 5876 5876 5876 5876 5876 5874 5872 5870 5869 5866 5863 5861
5861 5860 5859 5858 5857 5856 5856 5855 5855 5854 5853 5852 5852 5851 5851 5851 5852 5853 5856 5858 5859 5861 5862 5864 5864 5865 5867 5868 5867 5867 5868 5868 5870 5871 5870 5870 5870 5869 5867 5865 5863 5860 5857
5857 5856 5856 5854 5854 5852 5852 5851 5850 5848 5848 5847 5845 5846 5844 5843 5843 5845 5846 5848 5850 5852 5854 5855 5857 5858 5859 5860 5861 5862 5862 5863 5864 5864 5865 5865 5865 5864 5863 5861 5859 5856 5854
5853 5852 5851 5850 5850 5849 5848 5846 5844 5842 5841 5841 5840 5840 5839 5838 5836 5836 5837 5839 5840 5843 5845 5846 5847 5849 5850 5851 5853 5855 5856 5857 5858 5858 5859 5860 5860 5860 5858 5857 5855 5853 5850
5847 5847 5846 5845 5845 5845 5844 5842 5839 5837 5836 5834 5833 5833 5832 5831 5830 5828 5829 5831 5833 5835 5836 5838 5838 5839 5842 5843 5844 5846 5847 5849 5850 5851 5852 5853 5853 5854 5853 5851 5850 5848 5846
5841 5841 5840 5840 5839 5838 5839 5838 5836 5834 5831 5828 5826 5825 5824 5824 5824 5822 5819 5820 5823 5826 5827 5830 5832 5832 5832 5834 5836 5837 5838 5840 5843 5844 5845 5845 5846 5846 5846 5845 5844 5842 5841
5834 5833 5833 5833 5832 5832 5831 5830 5829 5827 5824 5822 5821 5820 5816 5815 5814 5814 5811 5810 5812 5817 5820 5822 5824 5825 5826 5826 5827 5828 5829 5831 5832 5834 5836 5837 5838 5838 5839 5838 5837 5836 5835
5826 5826 5826 5826 5826 5825 5824 5823 5822 5821 5819 5816 5813 5812 5811 5810 5806 5803 5802 5800 5801 5805 5810 5812 5813 5813 5814 5815 5817 5818 5820 5822 5824 5825 5827 5829 5830 5831 5831 5831 5830 5830 5829
5818 5819 5819 5819 5819 5818 5817 5815 5814 5813 5812 5810 5807 5805 5802 5801 5800 5798 5793 5789 5790 5795 5798 5800 5801 5802 5801 5801 5804 5807 5809 5811 5814 5817 5819 5821 5822 5824 5824 5824 5823 5823 5822
5810 5810 5810 5810 5810 5809 5808 5807 5806 5804 5802 5800 5799 5796 5794 5792 5790 5789 5786 5782 5779 5782 5790 5789 5787 5787 5790 5791 5794 5795 5797 5802 5804 5806 5809 5812 5814 5816 5817 5818 5817 5815 5815
5802 5802 5802 5801 5801 5800 5799 5798 5797 5796 5794 5792 5791 5789 5786 5784 5780 5778 5775 5771 5768 5776 5780 5779 5775 5775 5777 5778 5781 5782 5783 5787 5790 5795 5798 5800 5803 5806 5808 5810 5810 5810 5808
5793 5793 5793 5793 5792 5791 5791 5790 5789 5787 5786 5784 5783 5781 5780 5778 5775 5772 5769 5766 5764 5768 5771 5769 5769 5766 5765 5767 5767 5767 5769 5773 5776 5779 5783 5788 5790 5793 5795 5798 5801 5802 5801
5784 5784 5783 5783 5783 5782 5781 5781 5780 5778 5778 5777 5775 5774 5773 5771 5770 5768 5767 5767 5768 5769 5770 5765 5760 5754 5756 5757 5757 5760 5758 5761 5763 5765 5769 5774 5778 5781 5783 5786 5788 5791 5793
5774 5774 5774 5773 5773 5772 5772 5771 5770 5769 5769 5768 5767 5766 5764 5764 5763 5762 5762 5761 5762 5763 5762 5756 5755 5755 5755 5754 5750 5751 5753 5751 5754 5755 5758 5762 5765 5767 5770 5775 5777 5778 5781
5763 5763 5763 5762 5762 5762 5761 5761 5760 5759 5758 5758 5757 5756 5755 5754 5754 5754 5753 5752 5752 5751 5751 5749 5745 5746 5746 5746 5744 5743 5743 5742 5745 5746 5745 5748 5754 5757 5759 5761 5765 5768 5769
5752 5752 5752 5752 5752 5751 5751 5750 5749 5748 5747 5746 5746 5746 5745 5745 5744 5743 5743 5742 5741 5740 5740 5738 5738 5738 5736 5735 5735 5736 5733 5734 5732 5734 5734 5735 5738 5742 5747 5750 5753 5756 5759
5740 5740 5740 5740 5740 5740 5739 5738 5738 5737 5736 5735 5734 5734 5734 5733 5731 5730 5730 5730 5729 5726 5726 5727 5725 5723 5724 5724 5725 5725 5723 5723 5724 5723 5722 5724 5726 5728 5731 5736 5739 5744 5747
5727 5727 5727 5728 5728 5727 5727 5726 5725 5724 5723 5722 5722 5721 5720 5719 5718 5717 5715 5714 5714 5714 5713 5711 5709 5708 5706 5705 5708 5709 5710 5711 5712 5713 5714 5713 5715 5719 5718 5719 5722 5727 5733
5714 5714 5714 5714 5714 5714 5713 5712 5711 5710 5709 5708 5708 5707 5706 5705 5703 5701 5699 5697 5696 5695 5695 5696 5696 5693 5691 5690 5690 5693 5697 5698 5699 5699 5703 5703 5703 5703 5705 5708 5710 5714 5717
5700 5700 5700 5700 5700 5700 5699 5698 5697 5696 5695 5694 5693 5692 5690 5689 5687 5686 5684 5682 5680 5678 5677 5677 5677 5677 5676 5675 5674 5674 5673 5678 5683 5685 5687 5689 5689 5689 5690 5692 5699 5699 5703
5685 5685 5685 5684 5684 5684 5684 5683 5682 5681 5679 5678 5677 5675 5673 5672 5670 5669 5668 5665 5663 5661 5660 5659 5657 5655 5653 5654 5654 5655 5655 5655 5657 5663 5670 5674 5676 5674 5676 5678 5681 5686 5689
5669 5669 5668 5667 5667 5667 5666 5665 5665 5664 5663 5661 5660 5658 5656 5653 5651 5648 5646 5646 5644 5642 5640 5638 5637 5636 5634 5632 5632 5632 5632 5635 5636 5636 5642 5653 5652 5659 5656 5660 5664 5671 5675
5652 5651 5651 5650 5649 5649 5648 5648 5647 5646 5644 5641 5640 5639 5637 5634 5631 5629 5626 5625 5623 5620 5618 5618 5617 5616 5614 5611 5609 5610 5611 5612 5613 5614 5616 5626 5632 5640 5641 5644 5647 5654 5660
5635 5634 5633 5632 5631 5630 5628 5626 5625 5624 5623 5620 5618 5616 5614 5612 5608 5606 5606 5603 5603 5600 5597 5595 5594 5592 5591 5590 5587 5586 5585 5587 5591 5592 5591 5595 5604 5614 5624 5628 5630 5634 5641
5616 5615 5614 5613 5611 5608 5607 5604 5602 5600 5600 5597 5593 5591 5589 5586 5584 5581 5579 5578 5578 5575 5573 5571 5569 5566 5566 5566 5565 5562 5562 5563 5564 5569 5570 5571 5577 5584 5601 5609 5609 5613 5622